Regional Weather Roundup
Issued by NWS Sioux Falls, SD

Home | Current Version | Previous Version | Graphics & Text | Print | Product List | Glossary On
Versions: 1 2 3 4 5 6 7 8 9 10 11 12 13 14 15 16 17 18 19 20 21 22 23 24 25 26 27 28 29 30 31 32 33 34 35 36 37 38 39 40 41 42 43 44 45 46 47 48 49 50
000
ASUS43 KFSD 252102
RWRFSD

WEATHER ROUNDUP FOR SE SOUTH DAKOTA/SW MINNESOTA/NW IOWA
NATIONAL WEATHER SERVICE SIOUX FALLS SD
400 PM CDT TUE APR 25 2017

NOTE: "FAIR" INDICATES FEW OR NO CLOUDS BELOW 12,000 FEET WITH NO
SIGNIFICANT WEATHER AND OR OBSTRUCTIONS TO VISIBILITY.


SDZ038>040-050-052>070-252200-
SOUTHEAST SOUTH DAKOTA

CITY           SKY/WX    TMP DP  RH WIND       PRES   REMARKS
BROOKINGS      LGT RAIN  37  34  89 N14G23    29.64R
CHAMBERLAIN    CLOUDY    40  34  77 NW17G23   29.72S
HURON          CLOUDY    37  32  82 N21G28    29.72R
MADISON        CLOUDY    37  37 100 N18G24    29.64R
MITCHELL       CLOUDY    40  33  76 N25       29.68F
SIOUX FALLS    LGT RAIN  42  42 100 N13       29.61S
WINNER         LGT RAIN  37  33  85 N15       29.73R
YANKTON        CLOUDY    43  37  81 NW16G23   29.62S
$$

MNZ071-072-080-081-089-090-097-098-252200-
SOUTHWEST MINNESOTA

CITY           SKY/WX    TMP DP  RH WIND       PRES   REMARKS
FAIRMONT       LGT RAIN  44  42  93 N6        29.56S
JACKSON        RAIN      41  41 100 N7        29.57F
LUVERNE        LGT RAIN  37  36  93 N10       29.60R
MARSHALL       LGT RAIN  40  38  93 N20G26    29.60S FOG
MONTEVIDEO     CLOUDY    45  39  81 N16       29.61R
PIPESTONE      RAIN      39  34  81 N13G18    29.60R
REDWOOD FALLS  LGT RAIN  45  41  86 W15       29.57R
TRACY          LGT RAIN  40  40  98 N15       29.60S
WINDOM         LGT RAIN  41  41 100 N18       29.56F
WORTHINGTON    LGT RAIN  40  38  93 N13       29.58R
$$

IAZ001>003-012>014-020>022-031-032-NEZ013-014-SDZ071-252200-
NORTHWEST IOWA

CITY           SKY/WX    TMP DP  RH WIND       PRES   REMARKS
CHEROKEE       CLOUDY    45  43  94 N10G16    29.53F
DENISON        CLOUDY    50  45  81 N13       29.52R
ESTHERVILLE    RAIN      42  42 100 N8        29.56R FOG
LE MARS        CLOUDY    43  41  93 N14       29.59R FOG
ORANGE CITY    RAIN      41  41 100 N8        29.59R
SHELDON        LGT RAIN  43  41  93 NE12      29.56R
SIOUX CITY     CLOUDY    44  42  93 N14       29.58R
SPENCER        CLOUDY    44  41  89 N8        29.56F
STORM LAKE     CLOUDY    45  43  93 N15       29.52S
$$

ABBREVIATIONS USED IN REMARKS
   TC - TEMPERATURE IN CELSIUS
  WCI - WIND CHILL INDEX
   HX - HEAT INDEX
  VSB - VISIBILITY




USA.gov is the U.S. government's official web portal to all federal, state and local government web resources and services.